Flag for U.S.A. Weather past 2 weeks in Arden-Arcade, California, U.S.A.

Now
50 °F

Clear.


Feels Like: 48 °F
Forecast: 43 / 63 °F
Wind: 6 mph from South

Location: Mather Field

Current Time: Feb 26, 2015 at 10:21:50 PM

Latest Report: Feb 26, 2015 at 9:45 PM


Visibility: 10 mi

Pressure: 29.85 "Hg

Humidity: 76%

Dew point: 43 °F

Location of Arden-ArcadeLocation

Historic Weather in Arden-Arcade — Graph

°F

Arden-Arcade temperature yesterday

Maximum temperature yesterday: 64 °F (at 12:55 PM)
Minimum temperature yesterday: 36 °F (at 4:46 AM)
Average temperature yesterday: 50 °F

Past Weeks' High & Low Weather Summary

 TemperatureHumidityPressure
High73 °F (Feb 13, 3:48 PM)100% (Feb 12, 4:55 AM)30.36 "Hg (Feb 12, 4:55 AM)
Low30 °F (Feb 24, 4:52 AM)19% (Feb 22, 4:46 PM)29.80 "Hg (Feb 22, 2:46 PM)
Average53 °F76%30.08 "Hg
* Reported Feb 11 8:45 PM — Feb 26 8:45 PM, Arden-Arcade, Weather by CustomWeather, © 2015

Note: Actual official high and low records may vary slightly from our data, if they occured in-between our weather recording intervals... More about our weather records

Advertising

Arden-Arcade weather history for previous 24 hours

 ConditionsComfort  
Time TempWeatherWind HumidityBarometerVisibility
8:45 PM
Thu, Feb 26
50 °FCool.3 mph71%29.87 "Hg10 mi
7:45 PM55 °FClear.3 mph59%29.86 "Hg10 mi
6:46 PM59 °FClear.No wind51%29.87 "Hg10 mi
5:45 PM66 °FPassing clouds.7 mph40%29.88 "Hg10 mi
4:45 PM70 °FPassing clouds.13 mph31%29.89 "Hg10 mi
2:45 PM72 °FPassing clouds.15 mph31%29.91 "Hg10 mi
1:45 PM70 °FScattered clouds.9 mph38%29.93 "Hg10 mi
12:45 PM66 °FScattered clouds.9 mph46%29.96 "Hg10 mi
11:50 AM63 °FScattered clouds.8 mph52%30.01 "Hg10 mi
10:50 AM59 °FSunny.6 mph55%30.03 "Hg10 mi
9:46 AM57 °FScattered clouds.7 mph55%30.06 "Hg10 mi
8:50 AM52 °FScattered clouds.N/A67%30.07 "Hg10 mi
7:55 AM46 °FScattered clouds.No wind82%30.07 "Hg10 mi
6:55 AM39 °FScattered clouds.3 mph87%30.07 "Hg10 mi
4:55 AM39 °FClear.3 mph93%30.05 "Hg10 mi
3:45 AM37 °FClear.No wind93%30.06 "Hg10 mi
11:30 PM
Wed, Feb 25
45 °FClear.No wind81%30.08 "Hg10 mi
10:45 PM45 °FPassing clouds.7 mph81%30.08 "Hg10 mi
Weather by CustomWeather, © 2015

See weather overviewHow to use our weather pages